Regional Weather Roundup
Issued by NWS

Home | Current Version | Previous Version | Graphics & Text | Print | Product List | Glossary On
Versions: 1 2 3 4 5 6 7 8 9 10 11 12 13 14 15 16 17 18 19 20 21 22 23 24 25 26 27 28 29 30 31 32 33 34 35 36 37 38 39 40 41 42 43 44 45 46 47 48 49 50
000
ASUS43 KLMK 272002
RWRKY
KENTUCKY REGIONAL WEATHER ROUNDUP
NATIONAL WEATHER SERVICE LOUISVILLE KY
400 PM EDT THU APR 27 2017

NOTE "FAIR" INDICATES FEW OR NO CLOUDS BELOW 12,000 FEET
WITH NO SIGNIFICANT WEATHER AND/OR OBSTRUCTIONS TO VISIBILITY.

KYZ001>023-026-027-061>063-070>075-272100-
WESTERN AND SOUTH CENTRAL KENTUCKY

CITY           SKY/WX    TMP DP  RH WIND       PRES   REMARKS
PADUCAH        CLOUDY    58  47  66 SW9       29.83S
HENDERSON      CLOUDY    59  49  69 SW14      29.81R
OWENSBORO      PTSUNNY   60  49  66 SW13      29.81S
HOPKINSVILLE   PTSUNNY   62  50  64 SW14      29.82S
BOWLING GREEN  MOSUNNY   65  53  65 W13G23    29.82R
GLASGOW        NOT AVBL
$$

KYZ024-025-028>034-038-045-046-053-272100-
NORTH CENTRAL KENTUCKY

CITY           SKY/WX    TMP DP  RH WIND       PRES   REMARKS
LOUISVILLE/SDF PTSUNNY   62  50  64 W13       29.79R
LOUISVILLE/LOU CLOUDY    61  50  67 W14       29.80R
FORT KNOX      CLOUDY    59  49  70 W14       29.79R
$$

KYZ035>037-039>044-047>052-055>060-089>105-272100-
NORTHEAST KENTUCKY

CITY           SKY/WX    TMP DP  RH WIND       PRES   REMARKS
LEXINGTON      MOSUNNY   72  55  55 W14G24    29.74R
COVINGTON      PTSUNNY   63  52  67 W15G24    29.74R
FRANKFORT      PTSUNNY   66  50  56 SW15G23   29.76R
$$

KYZ054-064>069-076>088-106>120-272100-
SOUTHEAST KENTUCKY

CITY           SKY/WX    TMP DP  RH WIND       PRES   REMARKS
JACKSON        PTSUNNY   76  60  57 VRB7      29.74R
LONDON         MOSUNNY   78  52  40 W22       29.74R
SOMERSET       PTSUNNY   72  54  53 W16G23    29.77R
MIDDLESBORO    PTSUNNY   73  63  72 S9        29.76S
MONTICELLO     PTCLDY    75  57  53 W21G30    29.77R
$$




USA.gov is the U.S. government's official web portal to all federal, state and local government web resources and services.